Location: Dodgeville, WI 53533, USA
(43.0344°N, 90.0900°W)
Time: 05:07:19
(UTC-06:00)

X-37B - Pass Details

Date: 31 January 2021
Orbit: 383 x 391 km, 45.0° (Epoch: 27 February)

Event Time Altitude Azimuth Distance (km) Brightness Sun altitude
Rises 18:11:01 0° 284° (WNW) 2,271 5.7 -11.1°
Reaches altitude 10° 18:13:12 10° 275° (W) 1,416 4.7 -11.4°
Maximum altitude 18:16:06 33° 209° (SSW) 672 2.2 -12.0°
Drops below altitude 10° 18:19:01 10° 142° (SE) 1,413 3.2 -12.5°
Enters shadow 18:19:44 - 138° (SE) 1,687 3.5 -12.6°
